TimeCDT,TemperatureF,Dew PointF,Humidity,Sea Level PressureIn,VisibilityMPH,Wind Direction,Wind SpeedMPH,Gust SpeedMPH,PrecipitationIn,Events,Conditions,WindDirDegrees,DateUTC
12:13 AM,24.8,19.4,80,30.06,10.0,Calm,Calm,-,N/A,,Overcast,0,2013-03-23 05:13:00
12:32 AM,24.8,19.4,80,30.06,10.0,Calm,Calm,-,N/A,,Overcast,0,2013-03-23 05:32:00
12:53 AM,23.0,19.4,86,30.07,10.0,Calm,Calm,-,N/A,,Mostly Cloudy,0,2013-03-23 05:53:00
1:13 AM,21.2,19.4,93,30.06,10.0,Calm,Calm,-,N/A,,Clear,0,2013-03-23 06:13:00
1:33 AM,23.0,19.4,86,30.05,10.0,Calm,Calm,-,N/A,,Clear,0,2013-03-23 06:33:00
1:53 AM,21.2,19.4,93,30.05,10.0,NE,3.5,-,N/A,,Clear,40,2013-03-23 06:53:00
2:13 AM,21.2,17.6,86,30.04,10.0,NE,5.8,-,N/A,,Clear,50,2013-03-23 07:13:00
2:33 AM,21.2,17.6,86,30.04,10.0,Calm,Calm,-,N/A,,Clear,0,2013-03-23 07:33:00
2:53 AM,19.4,17.6,93,30.04,10.0,Calm,Calm,-,N/A,,Clear,0,2013-03-23 07:53:00
3:13 AM,19.4,17.6,93,30.07,10.0,WNW,4.6,-,N/A,,Clear,290,2013-03-23 08:13:00
3:33 AM,21.2,17.6,86,30.07,10.0,NW,3.5,-,N/A,,Clear,310,2013-03-23 08:33:00
3:53 AM,21.2,17.6,86,30.08,10.0,Calm,Calm,-,N/A,,Clear,0,2013-03-23 08:53:00
4:13 AM,17.6,15.8,93,30.09,10.0,West,3.5,-,N/A,,Clear,260,2013-03-23 09:13:00
4:33 AM,19.4,17.6,93,30.10,10.0,Calm,Calm,-,N/A,,Clear,0,2013-03-23 09:33:00
4:53 AM,19.4,17.6,93,30.10,10.0,Calm,Calm,-,N/A,,Clear,0,2013-03-23 09:53:00
5:13 AM,17.6,17.6,100,30.09,10.0,Calm,Calm,-,N/A,,Clear,0,2013-03-23 10:13:00
5:33 AM,17.6,17.6,100,30.09,7.0,Calm,Calm,-,N/A,,Clear,0,2013-03-23 10:33:00
5:53 AM,19.4,17.6,93,30.09,10.0,Calm,Calm,-,N/A,,Clear,0,2013-03-23 10:53:00
6:13 AM,15.8,15.8,100,30.09,7.0,North,3.5,-,N/A,,Clear,360,2013-03-23 11:13:00
6:33 AM,17.6,15.8,93,30.09,7.0,Calm,Calm,-,N/A,,Clear,0,2013-03-23 11:33:00
6:53 AM,17.6,15.8,93,30.09,7.0,North,4.6,-,N/A,,Clear,10,2013-03-23 11:53:00
7:13 AM,17.6,15.8,93,30.09,5.0,North,3.5,-,N/A,,Clear,10,2013-03-23 12:13:00
7:33 AM,17.6,15.8,93,30.10,5.0,Calm,Calm,-,N/A,,Clear,0,2013-03-23 12:33:00
7:53 AM,17.6,17.6,100,30.10,5.0,Calm,Calm,-,N/A,,Clear,0,2013-03-23 12:53:00
8:13 AM,19.4,17.6,93,30.11,5.0,Calm,Calm,-,N/A,,Clear,0,2013-03-23 13:13:00
8:33 AM,21.2,19.4,93,30.10,7.0,Calm,Calm,-,N/A,,Clear,0,2013-03-23 13:33:00
8:53 AM,21.2,19.4,93,30.10,7.0,Calm,Calm,-,N/A,,Clear,0,2013-03-23 13:53:00
9:13 AM,24.8,19.4,80,30.11,10.0,Calm,Calm,-,N/A,,Clear,0,2013-03-23 14:13:00
9:33 AM,26.6,19.4,74,30.11,10.0,Calm,Calm,-,N/A,,Clear,0,2013-03-23 14:33:00
9:53 AM,26.6,19.4,74,30.10,10.0,NW,4.6,-,N/A,,Clear,310,2013-03-23 14:53:00
10:13 AM,26.6,19.4,74,30.11,10.0,WNW,4.6,-,N/A,,Clear,300,2013-03-23 15:13:00
10:33 AM,26.6,21.2,80,30.11,10.0,NW,3.5,-,N/A,,Clear,320,2013-03-23 15:33:00
10:53 AM,28.4,21.2,74,30.12,10.0,NW,5.8,-,N/A,,Clear,320,2013-03-23 15:53:00
11:13 AM,28.4,19.4,69,30.12,10.0,NNW,4.6,-,N/A,,Clear,340,2013-03-23 16:13:00
11:33 AM,28.4,21.2,74,30.12,10.0,North,6.9,-,N/A,,Clear,350,2013-03-23 16:33:00
11:53 AM,28.4,21.2,74,30.13,10.0,NNW,4.6,-,N/A,,Clear,340,2013-03-23 16:53:00
12:13 PM,28.4,21.2,74,30.12,10.0,NW,4.6,-,N/A,,Clear,320,2013-03-23 17:13:00
12:32 PM,28.4,21.2,74,30.12,10.0,North,4.6,-,N/A,,Clear,360,2013-03-23 17:32:00
12:53 PM,30.2,21.2,69,30.12,10.0,Calm,Calm,-,N/A,,Clear,0,2013-03-23 17:53:00
1:13 PM,30.2,21.2,69,30.13,10.0,North,3.5,-,N/A,,Clear,350,2013-03-23 18:13:00
1:32 PM,30.2,21.2,69,30.11,10.0,North,5.8,-,N/A,,Clear,360,2013-03-23 18:32:00
1:53 PM,30.2,23.0,75,30.11,10.0,North,6.9,-,N/A,,Clear,10,2013-03-23 18:53:00
2:13 PM,30.2,21.2,69,30.10,10.0,North,3.5,-,N/A,,Clear,360,2013-03-23 19:13:00
2:32 PM,32.0,21.2,64,30.09,10.0,North,6.9,-,N/A,,Clear,350,2013-03-23 19:32:00
2:53 PM,32.0,21.2,64,30.08,10.0,North,5.8,-,N/A,,Clear,360,2013-03-23 19:53:00
3:13 PM,32.0,21.2,64,30.08,10.0,Calm,Calm,-,N/A,,Clear,0,2013-03-23 20:13:00
3:32 PM,33.8,21.2,60,30.07,10.0,NE,8.1,-,N/A,,Clear,40,2013-03-23 20:32:00
3:53 PM,33.8,21.2,60,30.07,10.0,North,5.8,-,N/A,,Clear,360,2013-03-23 20:53:00
4:13 PM,33.8,21.2,60,30.07,10.0,North,3.5,-,N/A,,Clear,360,2013-03-23 21:13:00
4:33 PM,33.8,21.2,60,30.07,10.0,North,4.6,-,N/A,,Clear,10,2013-03-23 21:33:00
4:53 PM,33.8,21.2,60,30.07,10.0,North,5.8,-,N/A,,Clear,360,2013-03-23 21:53:00
5:13 PM,33.8,21.2,60,30.06,10.0,North,6.9,-,N/A,,Clear,360,2013-03-23 22:13:00
5:33 PM,32.0,21.2,64,30.06,10.0,North,5.8,-,N/A,,Clear,350,2013-03-23 22:33:00
5:53 PM,32.0,21.2,64,30.06,10.0,North,6.9,-,N/A,,Clear,360,2013-03-23 22:53:00
6:13 PM,33.8,21.2,60,30.06,10.0,NNW,6.9,-,N/A,,Clear,330,2013-03-23 23:13:00
6:33 PM,32.0,21.2,64,30.07,10.0,NNW,5.8,-,N/A,,Clear,340,2013-03-23 23:33:00
6:53 PM,32.0,23.0,69,30.07,10.0,NNW,4.6,-,N/A,,Clear,340,2013-03-23 23:53:00
7:13 PM,32.0,23.0,69,30.07,10.0,NNW,4.6,-,N/A,,Clear,330,2013-03-24 00:13:00
7:33 PM,30.2,24.8,80,30.07,10.0,NNW,5.8,-,N/A,,Clear,330,2013-03-24 00:33:00
7:53 PM,30.2,21.2,69,30.07,10.0,NNW,6.9,-,N/A,,Scattered Clouds,340,2013-03-24 00:53:00
8:13 PM,30.2,23.0,75,30.07,10.0,NNW,6.9,-,N/A,,Scattered Clouds,340,2013-03-24 01:13:00
8:33 PM,30.2,23.0,75,30.08,10.0,NNW,8.1,-,N/A,,Scattered Clouds,330,2013-03-24 01:33:00
8:53 PM,30.2,24.8,80,30.09,10.0,NNW,6.9,-,N/A,,Overcast,340,2013-03-24 01:53:00
9:13 PM,30.2,24.8,80,30.09,10.0,NNW,6.9,-,N/A,,Mostly Cloudy,330,2013-03-24 02:13:00
9:33 PM,30.2,24.8,80,30.09,10.0,NNW,6.9,-,N/A,,Scattered Clouds,340,2013-03-24 02:33:00
9:53 PM,30.2,24.8,80,30.09,10.0,NNW,5.8,-,N/A,,Scattered Clouds,340,2013-03-24 02:53:00
10:12 PM,30.2,24.8,80,30.09,10.0,NNW,9.2,-,N/A,,Mostly Cloudy,340,2013-03-24 03:12:00
10:33 PM,28.4,24.8,86,30.09,10.0,NNW,6.9,-,N/A,,Overcast,330,2013-03-24 03:33:00
10:53 PM,28.4,23.0,80,30.09,10.0,NNW,4.6,-,N/A,,Overcast,330,2013-03-24 03:53:00
11:12 PM,28.4,24.8,86,30.09,10.0,NNW,5.8,-,N/A,,Mostly Cloudy,330,2013-03-24 04:12:00
11:33 PM,28.4,24.8,86,30.08,10.0,NNW,5.8,-,N/A,,Mostly Cloudy,330,2013-03-24 04:33:00
11:53 PM,28.4,24.8,86,30.08,10.0,NNW,4.6,-,N/A,,Mostly Cloudy,330,2013-03-24 04:53:00